User: anonymous   Login
Location: Natural Bridges National Monument
(37.6093°N, 109.9767°W)
Time: 18:13:17
(UTC-06:00)
Language:

Cosmos 1727 Rocket - Orbit

View from above orbital plane
View from above orbital plane
View from above satellite
View from above satellite

Ground track
Ground track

The orbit data is extracted from the following two-line orbital elements,

1 16511U 86008B   16268.95069963 -.00000037 +00000-0 -54031-4 0  9995
2 16511 082.9434 056.6151 0023104 305.3768 168.8871 13.75808235539549
Epoch (UTC): 24 September 2016 22:49:00
Eccentricity: 0.0023104
inclination: 82.9434°
perigee height: 962 km
apogee height: 996 km
right ascension of ascending node: 56.6151°
argument of perigee: 305.3768°
revolutions per day: 13.75808235
mean anomaly at epoch: 168.8871°
orbit number at epoch: 53954

The dashed part of the orbit path shows where the satellite is in the earth's shadow,  

DLR